When you browse on this site, cookies collect data to enhance your experience and personalize the content and advertising you see.
Visit our Privacy Policy to learn more. By continuing to use the site, you agree to this use of cookies and data.
  • en Belgique
  • Liste des pays
  • À 7 jours
  • Température de l'eau
  • Carte satellitaire
  • Carte météo
  • Widgets météo
  • user-avatar
    Se connecter

    Météo par heure à Biskra

    Ce jour, 23 Juillet, Mardi

    Heure Température Précipitation Vent Pression Humidité
    00:00 +34°C° 0 mm 6 m/s 754 mmHg 28%
    01:00 +33°C° 0 mm 5 m/s 754 mmHg 29%
    02:00 +32°C° 0 mm 4 m/s 754 mmHg 30%
    03:00 +30°C° 0 mm 3 m/s 753 mmHg 31%
    04:00 +30°C° 0 mm 2 m/s 754 mmHg 31%
    05:00 +30°C° 0 mm 2 m/s 754 mmHg 31%
    06:00 +30°C° 0 mm 1 m/s 755 mmHg 31%
    07:00 +31°C° 0 mm 2 m/s 754 mmHg 29%
    08:00 +32°C° 0 mm 2 m/s 754 mmHg 28%
    09:00 +34°C° 0 mm 3 m/s 754 mmHg 26%
    10:00 +36°C° 0 mm 3 m/s 754 mmHg 24%
    11:00 +37°C° 0 mm 3 m/s 754 mmHg 23%
    12:00 +38°C° 0 mm 3 m/s 754 mmHg 20%
    13:00 +39°C° 0 mm 3 m/s 753 mmHg 20%
    14:00 +39°C° 0 mm 3 m/s 752 mmHg 19%
    15:00 +40°C° 0 mm 2 m/s 752 mmHg 18%
    16:00 +40°C° 0 mm 3 m/s 752 mmHg 18%
    17:00 +40°C° 0 mm 3 m/s 752 mmHg 18%
    18:00 +40°C° 0 mm 3 m/s 752 mmHg 18%
    19:00 +39°C° 0 mm 3 m/s 752 mmHg 19%
    20:00 +38°C° 0 mm 3 m/s 752 mmHg 20%
    21:00 +37°C° 0 mm 3 m/s 752 mmHg 21%
    22:00 +36°C° 0 mm 3 m/s 752 mmHg 20%
    23:00 +35°C° 0 mm 2 m/s 753 mmHg 20%

    Demain, 24 Juillet, Mercredi

    Heure Température Précipitation Vent Pression Humidité
    00:00 +34°C° 0 mm 2 m/s 753 mmHg 19%
    01:00 +34°C° 0 mm 2 m/s 753 mmHg 19%
    02:00 +32°C° 0 mm 2 m/s 752 mmHg 19%
    03:00 +31°C° 0 mm 2 m/s 752 mmHg 19%
    04:00 +31°C° 0 mm 2 m/s 752 mmHg 19%
    05:00 +31°C° 0 mm 2 m/s 752 mmHg 19%
    06:00 +31°C° 0 mm 2 m/s 753 mmHg 19%
    07:00 +34°C° 0 mm 3 m/s 753 mmHg 18%
    08:00 +35°C° 0 mm 3 m/s 753 mmHg 18%
    09:00 +36°C° 0 mm 3 m/s 753 mmHg 18%
    10:00 +37°C° 0 mm 3 m/s 753 mmHg 17%
    11:00 +38°C° 0 mm 3 m/s 753 mmHg 16%
    12:00 +39°C° 0 mm 3 m/s 752 mmHg 15%
    13:00 +40°C° 0 mm 2 m/s 752 mmHg 15%
    14:00 +40°C° 0 mm 2 m/s 751 mmHg 14%
    15:00 +41°C° 0 mm 2 m/s 751 mmHg 14%
    16:00 +41°C° 0 mm 2 m/s 751 mmHg 14%
    17:00 +41°C° 0 mm 2 m/s 751 mmHg 14%
    18:00 +41°C° 0 mm 2 m/s 750 mmHg 14%
    19:00 +40°C° 0 mm 2 m/s 751 mmHg 16%
    20:00 +39°C° 0 mm 2 m/s 751 mmHg 17%
    21:00 +36°C° 0 mm 1 m/s 751 mmHg 18%
    22:00 +36°C° 0 mm 1 m/s 751 mmHg 19%
    23:00 +35°C° 0 mm 1 m/s 751 mmHg 20%

    Après-demain, 25 Juillet, Jeudi

    Heure Température Précipitation Vent Pression Humidité
    00:00 +34°C° 0 mm 1 m/s 751 mmHg 21%
    01:00 +33°C° 0 mm 1 m/s 751 mmHg 21%
    02:00 +33°C° 0 mm 1 m/s 751 mmHg 21%
    03:00 +32°C° 0 mm 2 m/s 751 mmHg 21%
    04:00 +34°C° 0 mm 2 m/s 751 mmHg 20%
    05:00 +34°C° 0 mm 2 m/s 751 mmHg 20%
    06:00 +35°C° 0 mm 3 m/s 752 mmHg 19%
    07:00 +36°C° 0 mm 3 m/s 752 mmHg 18%
    08:00 +37°C° 0 mm 4 m/s 752 mmHg 16%
    09:00 +40°C° 0 mm 4 m/s 752 mmHg 15%
    10:00 +41°C° 0 mm 4 m/s 752 mmHg 14%
    11:00 +42°C° 0 mm 4 m/s 751 mmHg 13%
    12:00 +43°C° 0 mm 4 m/s 751 mmHg 12%
    13:00 +43°C° 0 mm 3 m/s 750 mmHg 12%
    14:00 +44°C° 0 mm 3 m/s 750 mmHg 11%
    15:00 +45°C° 0 mm 3 m/s 749 mmHg 11%
    16:00 +44°C° 0 mm 3 m/s 749 mmHg 11%
    17:00 +44°C° 0 mm 3 m/s 749 mmHg 11%
    18:00 +44°C° 0 mm 3 m/s 749 mmHg 11%
    19:00 +43°C° 0 mm 3 m/s 750 mmHg 12%
    20:00 +40°C° 0 mm 3 m/s 750 mmHg 13%
    21:00 +39°C° 0 mm 2 m/s 750 mmHg 14%
    22:00 +38°C° 0 mm 2 m/s 750 mmHg 15%
    23:00 +36°C° 0 mm 1 m/s 750 mmHg 16%

    26 Juillet, Vendredi

    Heure Température Précipitation Vent Pression Humidité
    00:00 +35°C° 0 mm 1 m/s 750 mmHg 16%
    01:00 +34°C° 0 mm 1 m/s 750 mmHg 17%
    02:00 +34°C° 0 mm 1 m/s 749 mmHg 17%
    03:00 +33°C° 0 mm 1 m/s 749 mmHg 18%
    04:00 +34°C° 0 mm 2 m/s 749 mmHg 18%
    05:00 +35°C° 0 mm 3 m/s 749 mmHg 18%
    06:00 +35°C° 0 mm 4 m/s 749 mmHg 18%
    07:00 +37°C° 0 mm 4 m/s 750 mmHg 17%
    08:00 +39°C° 0 mm 5 m/s 750 mmHg 16%
    09:00 +41°C° 0 mm 5 m/s 750 mmHg 16%
    10:00 +42°C° 0 mm 4 m/s 749 mmHg 14%
    11:00 +43°C° 0 mm 3 m/s 749 mmHg 12%
    12:00 +45°C° 0 mm 2 m/s 749 mmHg 10%
    13:00 +45°C° 0 mm 2 m/s 748 mmHg 10%
    14:00 +45°C° 0 mm 1 m/s 748 mmHg 9%
    15:00 +46°C° 0 mm 1 m/s 747 mmHg 8%
    16:00 +47°C° 0 mm 4 m/s 747 mmHg 9%
    17:00 +46°C° 0 mm 6 m/s 747 mmHg 11%
    18:00 +45°C° 0 mm 9 m/s 747 mmHg 12%
    19:00 +44°C° 0 mm 7 m/s 747 mmHg 13%
    20:00 +42°C° 0 mm 6 m/s 748 mmHg 14%
    21:00 +42°C° 0 mm 4 m/s 748 mmHg 15%
    22:00 +41°C° 0.1 mm 4 m/s 748 mmHg 18%
    23:00 +38°C° 0.1 mm 3 m/s 748 mmHg 20%

    27 Juillet, Samedi

    Heure Température Précipitation Vent Pression Humidité
    00:00 +37°C° 0.1 mm 3 m/s 747 mmHg 22%
    01:00 +37°C° 0 mm 5 m/s 747 mmHg 22%
    02:00 +39°C° 0 mm 6 m/s 747 mmHg 22%
    03:00 +39°C° 0 mm 8 m/s 747 mmHg 21%
    04:00 +39°C° 0 mm 6 m/s 747 mmHg 22%
    05:00 +39°C° 0 mm 5 m/s 747 mmHg 22%
    06:00 +37°C° 0 mm 4 m/s 747 mmHg 22%
    07:00 +40°C° 0 mm 4 m/s 747 mmHg 20%
    08:00 +41°C° 0 mm 4 m/s 747 mmHg 18%
    09:00 +43°C° 0 mm 5 m/s 747 mmHg 15%
    10:00 +43°C° 0 mm 4 m/s 747 mmHg 15%
    11:00 +43°C° 0 mm 3 m/s 746 mmHg 14%
    12:00 +43°C° 0 mm 2 m/s 746 mmHg 13%
    13:00 +44°C° 0 mm 3 m/s 745 mmHg 13%
    14:00 +45°C° 0 mm 4 m/s 745 mmHg 13%
    15:00 +47°C° 0 mm 5 m/s 744 mmHg 12%
    16:00 +46°C° 0 mm 7 m/s 744 mmHg 12%
    17:00 +45°C° 0 mm 9 m/s 744 mmHg 12%
    18:00 +44°C° 0 mm 11 m/s 744 mmHg 12%
    19:00 +43°C° 0 mm 10 m/s 745 mmHg 13%
    20:00 +40°C° 0 mm 9 m/s 746 mmHg 14%
    21:00 +39°C° 0 mm 8 m/s 746 mmHg 15%
    22:00 +38°C° 0 mm 7 m/s 746 mmHg 20%
    23:00 +36°C° 0 mm 6 m/s 747 mmHg 25%

    28 Juillet, Dimanche

    Heure Température Précipitation Vent Pression Humidité
    00:00 +35°C° 0 mm 5 m/s 747 mmHg 31%
    01:00 +34°C° 0 mm 5 m/s 747 mmHg 33%
    02:00 +33°C° 0 mm 5 m/s 746 mmHg 35%
    03:00 +33°C° 0 mm 4 m/s 746 mmHg 38%
    04:00 +33°C° 0 mm 4 m/s 746 mmHg 38%
    05:00 +33°C° 0 mm 4 m/s 747 mmHg 38%
    06:00 +33°C° 0 mm 4 m/s 747 mmHg 38%
    07:00 +35°C° 0 mm 3 m/s 747 mmHg 33%
    08:00 +36°C° 0 mm 3 m/s 748 mmHg 29%
    09:00 +38°C° 0 mm 3 m/s 748 mmHg 25%
    10:00 +39°C° 0 mm 3 m/s 748 mmHg 23%
    11:00 +40°C° 0 mm 3 m/s 748 mmHg 21%
    12:00 +42°C° 0 mm 3 m/s 748 mmHg 18%
    13:00 +42°C° 0 mm 3 m/s 748 mmHg 17%
    14:00 +43°C° 0 mm 3 m/s 747 mmHg 16%
    15:00 +43°C° 0 mm 3 m/s 747 mmHg 15%
    16:00 +43°C° 0 mm 3 m/s 747 mmHg 15%
    17:00 +43°C° 0 mm 3 m/s 747 mmHg 15%
    18:00 +42°C° 0 mm 3 m/s 747 mmHg 15%
    19:00 +40°C° 0 mm 3 m/s 748 mmHg 17%
    20:00 +39°C° 0 mm 3 m/s 748 mmHg 19%
    21:00 +38°C° 0 mm 3 m/s 749 mmHg 21%
    22:00 +37°C° 0 mm 4 m/s 749 mmHg 26%
    23:00 +35°C° 0 mm 5 m/s 749 mmHg 32%
    Voir plus